Location: Heiligenberg
(48.5381°N, 7.3897°E)
Time: 03:17:43
(UTC+00:00)

CZ-4C R/B - Pass Details

Date: 26 May 2022
Orbit: 582 x 1419 km, 63.4° (Epoch: 26 June)

Event Time Altitude Azimuth Distance (km) Brightness Sun altitude
Rises 00:13:54 0° 316° (NW) 3,844 6.1 -19.6°
Reaches altitude 10° 00:16:26 10° 311° (NW) 3,000 5.4 -19.5°
Maximum altitude 00:23:28 51° 239° (WSW) 1,563 3.2 -19.3°
Enters shadow 00:27:56 27° 179° (S) 2,344 3.9 -19.1°
